Fort Rucker / Ozark, AL

10:03 AM CDT on August 23, 2017 (GMT -0500)
Fort Rucker / Ozark

Weather History for KLOR - February, 2013

Change the Weather History Date:

Friday, February 15, 2013

  Actual Average (KOZR) Record (KOZR)
Temperature  
Mean Temperature 48 °F -  
Max Temperature 66 °F 62 °F 78 °F (2000)
Min Temperature 30 °F 41 °F 28 °F (1999)
Degree Days  
Heating Degree Days 17    
Moisture  
Dew Point 35 °F    
Average Humidity 71    
Maximum Humidity 93    
Minimum Humidity 28    
Precipitation  
Precipitation 0.00 in - - ()
Sea Level Pressure  
Sea Level Pressure 30.08 in    
Wind  
Wind Speed 1 mph (North)    
Max Wind Speed 8 mph    
Max Gust Speed -    
Visibility 8 miles    
Events      
Averages and records for this station are not official NWS values.
T = Trace of Precipitation, MM = Missing Value Source: NWS Daily Summary

Daily Weather History Graph

Daily Weather History Graph

Search for Another Location

Airport or City:

Trip Planner

Search our weather history database for the weather conditions in past years. The results will help you decide how hot, cold, wet, or windy it might be!

Date:

Astronomy

Feb. 15, 2013 Rise Set
Actual Time 6:24 AM CST 5:30 PM CST
Civil Twilight 5:59 AM CST 5:55 PM CST
Nautical Twilight 5:30 AM CST 6:23 PM CST
Astronomical Twilight 5:02 AM CST 6:51 PM CST
Moon 9:24 AM CST (2/15) 11:03 PM CST (2/15)
Length of Visible Light 11h 55m
Length of Day
11h 06m
Waxing Crescent, 30% of the Moon is Illuminated
Feb 15
Waxing Crescent
Feb 17
First Quarter
Feb 25
Full
Mar 4
Last Quarter
Mar 11
New

Hourly Weather History & Observations

Time (CST) Temp. Dew Point Humidity Pressure Visibility Wind Dir Wind Speed Gust Speed Precip Events Conditions
12:53 AM 34.0 °F 30.9 °F 89% 30.09 in 6.0 mi Calm Calm - N/A   Clear
1:53 AM 33.1 °F 30.9 °F 92% 30.08 in - Calm Calm - N/A   Clear
2:53 AM 33.1 °F 30.0 °F 89% 30.08 in 7.0 mi Calm Calm - N/A   Clear
3:53 AM 32.0 °F 30.0 °F 92% 30.09 in 7.0 mi Calm Calm - N/A   Clear
4:53 AM 30.9 °F 28.9 °F 92% 30.11 in 7.0 mi Calm Calm - N/A   Clear
5:49 AM 30.2 °F 28.4 °F 93% 30.12 in 1.0 mi Calm Calm - N/A   Mist
5:53 AM 30.9 °F 28.9 °F 92% 30.12 in 0.8 mi Calm Calm - N/A   Mist
6:02 AM 30.2 °F 28.4 °F 93% 30.12 in 3.0 mi Calm Calm - N/A   Scattered Clouds
6:53 AM 32.0 °F 30.0 °F 92% 30.14 in 9.0 mi Calm Calm - N/A   Clear
7:33 AM 35.6 °F 33.8 °F 93% 30.14 in 2.5 mi Calm Calm - N/A   Partly Cloudy
7:53 AM 37.9 °F 36.0 °F 93% 30.14 in 1.0 mi Calm Calm - N/A   Mist
8:07 AM 41.0 °F 39.2 °F 93% 30.14 in 2.0 mi Calm Calm - N/A   Partly Cloudy
8:16 AM 42.8 °F 39.2 °F 87% 30.14 in 9.0 mi Calm Calm - N/A   Partly Cloudy
8:53 AM 50.0 °F 41.0 °F 71% 30.15 in 10.0 mi NNE 5.8 mph - N/A   Clear
9:53 AM 57.0 °F 41.0 °F 55% 30.14 in 10.0 mi ENE 3.5 mph - N/A   Clear
10:53 AM 61.0 °F 36.0 °F 39% 30.13 in 10.0 mi North 5.8 mph - N/A   Clear
11:53 AM 62.1 °F 35.1 °F 37% 30.09 in 10.0 mi East 5.8 mph - N/A   Clear
12:53 PM 64.0 °F 33.1 °F 31% 30.05 in 10.0 mi Calm Calm - N/A   Clear
1:53 PM 66.0 °F 33.1 °F 29% 30.02 in 10.0 mi NW 3.5 mph - N/A   Clear
2:53 PM 66.0 °F 32.0 °F 28% 30.01 in 10.0 mi North 8.1 mph - N/A   Clear
3:53 PM 64.9 °F 30.9 °F 28% 30.01 in 10.0 mi Calm Calm - N/A   Clear
4:53 PM 63.0 °F 33.1 °F 33% 30.01 in 10.0 mi NNW 6.9 mph - N/A   Clear
5:53 PM 55.9 °F 37.9 °F 51% 30.01 in 10.0 mi NW 3.5 mph - N/A   Clear
6:53 PM 48.9 °F 39.0 °F 69% 30.02 in 10.0 mi Calm Calm - N/A   Clear
7:53 PM 46.0 °F 39.9 °F 79% 30.04 in 10.0 mi Calm Calm - N/A   Clear
8:53 PM 45.0 °F 41.0 °F 86% 30.04 in 10.0 mi Calm Calm - N/A   Clear
9:53 PM 43.0 °F 39.9 °F 89% 30.04 in 10.0 mi Calm Calm - N/A   Clear
10:53 PM 42.1 °F 39.0 °F 89% 30.03 in 10.0 mi Calm Calm - N/A   Clear
11:53 PM 48.9 °F 37.9 °F 66% 30.03 in 10.0 mi NNW 6.9 mph - N/A   Clear